sat.trackr.live / text

‹ back to catalog

ONEWEB-0328

NORAD 49197 · 2021-083M

PAYLOAD ACTIVE UNKNOWN

§ Identity

Operator
Country
UK
Launch date
2021-09-14
Launch site
TYMSC
Launch vehicle
Mass (kg)
RCS (m²)

Purposes: comms

External: N2YO · Heavens-Above · Gunter

§ Orbital elements

Epoch: 2026-05-25T01:31:19.437024Z

Period
109.63 min
Inclination
87.8949°
Eccentricity
0.0001769
Mean motion
13.13468395 rev/d
Perigee alt
1,208.4 km
Apogee alt
1,211.1 km
Semi-major
7,587.9 km
B*
-8.2840e-4
RAAN
324.8142°
Arg perigee
96.4188°
Mean anomaly
263.7142°
Rev number
22,786

§ Raw data

ONEWEB-03281 49197U 21083M   26145.06341941 -.00000290  00000+0 -82840-3 0  99972 49197  87.8949 324.8142 0001769  96.4188 263.7142 13.13468395227863

JSON: /api/v1/satellites/49197 · /tle

For live sub-satellite position, see the globe view (requires WebGL).

§ Visibility from observer

Set your observer location to see the next 7 days of passes ≥ 10°. The values pass through the URL so the page stays shareable.

No JS? Fill the form by hand. The geolocation button needs JavaScript.